This demonstration page uses our WeatherBlox Daily Observations layout. Learn more.

Left ArrowRight Arrow

39.01783, -85.05884

Hourly Observations for March 15, 2018

Temp ( °F °C ) Dew Point ( °F °C ) Humidity (%) Winds ( mph kmh ) Pressure ( in mb ) Visibility ( mi km ) Precip ( " mm )
12:52 am 00:52 Mostly Clear 32 undefined 21 -6.1 64 64 SSW 9 15 29.92 1013 10 16 N/A
1:52 am 01:52 Mostly Clear 34 1.1 21 -6.1 59 59 SW 14 22 29.87 1012 10 16 N/A
2:52 am 02:52 Cloudy 36 2.2 22 -5.6 57 57 SW 15 24 29.83 1010 10 16 N/A
3:52 am 03:52 Mostly Clear 36 2.2 22 -5.6 57 57 SW 15 24 29.80 1009 10 16 N/A
4:52 am 04:52 Clear 37 2.8 23 -5 57 57 WSW 14 22 29.78 1009 10 16 N/A
5:52 am 05:52 Mostly Clear 36 2.2 24 -4.4 62 62 WSW 12 19 29.78 1008 10 16 N/A
6:52 am 06:52 Clear 36 2.2 25 -3.9 64 64 WSW 10 17 29.79 1009 10 16 N/A
7:52 am 07:52 Partly Cloudy 34 1.1 25 -3.9 70 70 W 9 15 29.82 1010 10 16 N/A
8:52 am 08:52 Mostly Sunny 38 3.3 27 -2.8 65 65 W 10 17 29.83 1010 10 16 N/A
9:52 am 09:52 Sunny 41 5 28 -2.2 60 60 W 15 24 29.84 1011 10 16 N/A
10:52 am 10:52 Sunny 45 7.2 28 -2.2 52 52 WNW 10 17 29.85 1011 10 16 N/A
11:52 am 11:52 Sunny 48 8.9 25 -3.9 41 41 W 15 24 29.85 1011 10 16 N/A
12:52 pm 12:52 Sunny 51 10.6 24 -4.4 35 35 WNW 16 26 29.84 1011 10 16 N/A
1:52 pm 13:52 Sunny 53 11.7 24 -4.4 32 32 W 14 22 29.83 1010 10 16 N/A
2:52 pm 14:52 Sunny 54 12.2 22 -5.6 29 29 W 16 26 29.81 1010 10 16 N/A
3:52 pm 15:52 Sunny 55 12.8 22 -5.6 28 28 NW 15 24 29.80 1009 10 16 N/A
4:52 pm 16:52 Sunny 55 12.8 21 -6.1 26 26 WNW 18 30 29.80 1009 10 16 N/A
5:52 pm 17:52 Mostly Sunny 55 12.8 19 -7.2 24 24 WNW 17 28 29.79 1009 10 16 N/A
6:52 pm 18:52 Mostly Sunny 53 11.7 19 -7.2 26 26 WNW 15 24 29.80 1009 10 16 N/A
7:52 pm 19:52 Partly Cloudy 50 10 20 -6.7 30 30 NW 16 26 29.81 1010 10 16 N/A
8:52 pm 20:52 Mostly Clear 45 7.2 21 -6.1 39 39 NW 8 13 29.83 1010 10 16 N/A
9:52 pm 21:52 Partly Cloudy 45 7.2 22 -5.6 40 40 NNW 10 17 29.85 1011 10 16 N/A
10:52 pm 22:52 Partly Cloudy 44 6.7 23 -5 43 43 NNW 6 9 29.87 1012 10 16 N/A
11:52 pm 23:52 Partly Cloudy 42 5.6 24 -4.4 49 49 NNW 6 9 29.89 1012 10 16 N/A

Powered by AerisWeather